QPF
0.00 0.00 0.00 0.00 0.00 0.00 0.02 0.04 0.11 0.19 0.18 0.17 0.13 0.08 0.05 0.04 0.04 0.03 0.03 0.03 0.04 0.04 0.05 0.05 0.07 0.08 0.09 0.11 0.09 0.07 0.07 0.05 0.05 0.05 0.06 0.05 0.04 0.04 0.03 0.02 0.03 0.04 0.03
0.00 0.00 0.00 0.00 0.00 0.00 0.01 0.02 0.06 0.12 0.15 0.20 0.20 0.15 0.07 0.04 0.04 0.05 0.04 0.04 0.04 0.05 0.05 0.06 0.07 0.07 0.07 0.08 0.07 0.07 0.06 0.04 0.05 0.06 0.07 0.07 0.06 0.05 0.03 0.02 0.02 0.03 0.03
0.00 0.00 0.00 0.00 0.00 0.00 0.00 0.01 0.02 0.04 0.04 0.08 0.10 0.10 0.07 0.06 0.05 0.04 0.04 0.04 0.03 0.04 0.05 0.04 0.04 0.05 0.04 0.05 0.06 0.05 0.05 0.06 0.05 0.06 0.07 0.07 0.07 0.06 0.06 0.04 0.02 0.02 0.03
0.00 0.00 0.00 0.00 0.00 0.00 0.01 0.01 0.01 0.02 0.01 0.02 0.02 0.02 0.02 0.05 0.08 0.09 0.06 0.05 0.04 0.04 0.06 0.06 0.05 0.05 0.03 0.04 0.04 0.04 0.05 0.05 0.06 0.05 0.06 0.06 0.07 0.08 0.07 0.06 0.03 0.03 0.03
0.00 0.00 0.00 0.00 0.00 0.00 0.00 0.00 0.01 0.01 0.01 0.01 0.01 0.01 0.01 0.01 0.03 0.06 0.11 0.11 0.10 0.08 0.10 0.09 0.06 0.06 0.05 0.04 0.05 0.06 0.05 0.04 0.05 0.07 0.07 0.06 0.06 0.07 0.07 0.05 0.05 0.04 0.03
0.00 0.00 0.00 0.00 0.00 0.00 0.00 0.00 0.00 0.01 0.01 0.00 0.01 0.01 0.01 0.02 0.02 0.03 0.05 0.10 0.16 0.20 0.19 0.17 0.10 0.06 0.06 0.06 0.06 0.06 0.03 0.03 0.04 0.05 0.05 0.05 0.05 0.07 0.08 0.06 0.05 0.05 0.03
0.00 0.00 0.00 0.00 0.00 0.00 0.00 0.00 0.00 0.00 0.00 0.00 0.00 0.00 0.01 0.01 0.02 0.02 0.03 0.04 0.04 0.08 0.18 0.23 0.15 0.08 0.06 0.05 0.05 0.05 0.03 0.02 0.02 0.03 0.04 0.04 0.05 0.06 0.08 0.08 0.05 0.04 0.03
0.00 0.00 0.00 0.00 0.00 0.00 0.00 0.00 0.00 0.00 0.00 0.00 0.00 0.00 0.00 0.01 0.01 0.02 0.03 0.03 0.02 0.02 0.03 0.08 0.11 0.07 0.04 0.04 0.05 0.03 0.03 0.03 0.03 0.02 0.04 0.05 0.04 0.05 0.08 0.08 0.08 0.05 0.04
0.00 0.00 0.00 0.00 0.00 0.00 0.00 0.00 0.00 0.00 0.00 0.00 0.00 0.01 0.01 0.01 0.01 0.02 0.02 0.01 0.01 0.01 0.01 0.02 0.02 0.03 0.03 0.04 0.04 0.03 0.04 0.05 0.03 0.03 0.04 0.04 0.05 0.05 0.07 0.08 0.08 0.07 0.05
0.00 0.00 0.00 0.00 0.00 0.00 0.00 0.00 0.00 0.00 0.00 0.00 0.00 0.00 0.00 0.01 0.02 0.01 0.01 0.02 0.02 0.01 0.02 0.02 0.02 0.01 0.01 0.02 0.03 0.03 0.04 0.05 0.04 0.05 0.05 0.05 0.03 0.05 0.07 0.08 0.08 0.07 0.06
0.00 0.00 0.00 0.00 0.00 0.00 0.00 0.00 0.00 0.00 0.00 0.01 0.01 0.02 0.02 0.02 0.02 0.01 0.01 0.01 0.01 0.02 0.02 0.02 0.02 0.01 0.01 0.01 0.01 0.01 0.03 0.04 0.06 0.05 0.06 0.06 0.05 0.05 0.04 0.07 0.07 0.06 0.06
0.00 0.00 0.00 0.00 0.00 0.00 0.00 0.00 0.00 0.00 0.00 0.01 0.02 0.02 0.01 0.01 0.01 0.01 0.02 0.01 0.01 0.01 0.01 0.02 0.02 0.01 0.01 0.01 0.01 0.01 0.02 0.03 0.06 0.07 0.07 0.06 0.06 0.06 0.05 0.06 0.07 0.06 0.07
0.00 0.00 0.00 0.00 0.00 0.00 0.00 0.00 0.00 0.00 0.00 0.01 0.02 0.02 0.01 0.01 0.01 0.01 0.02 0.01 0.01 0.01 0.01 0.01 0.01 0.01 0.02 0.02 0.02 0.01 0.01 0.02 0.04 0.06 0.06 0.06 0.05 0.05 0.05 0.05 0.05 0.05 0.06
0.00 0.00 0.00 0.00 0.00 0.00 0.00 0.00 0.00 0.00 0.00 0.01 0.02 0.01 0.01 0.01 0.02 0.01 0.01 0.01 0.01 0.01 0.01 0.01 0.01 0.01 0.01 0.02 0.01 0.02 0.02 0.02 0.02 0.03 0.03 0.03 0.02 0.02 0.04 0.04 0.04 0.04 0.05
0.00 0.00 0.00 0.00 0.01 0.01 0.01 0.01 0.01 0.01 0.01 0.01 0.01 0.01 0.01 0.01 0.01 0.01 0.01 0.00 0.00 0.00 0.00 0.00 0.00 0.01 0.01 0.01 0.01 0.02 0.02 0.02 0.01 0.02 0.02 0.02 0.01 0.02 0.03 0.03 0.04 0.04 0.04
0.00 0.00 0.00 0.00 0.00 0.01 0.01 0.01 0.01 0.01 0.01 0.01 0.01 0.01 0.00 0.01 0.01 0.01 0.00 0.00 0.00 0.00 0.00 0.00 0.00 0.00 0.00 0.01 0.01 0.02 0.02 0.01 0.01 0.01 0.02 0.02 0.01 0.01 0.02 0.02 0.02 0.03 0.04
0.00 0.00 0.00 0.00 0.00 0.00 0.01 0.01 0.01 0.01 0.00 0.00 0.00 0.00 0.00 0.00 0.00 0.01 0.01 0.00 0.00 0.00 0.00 0.00 0.01 0.00 0.00 0.01 0.01 0.01 0.01 0.01 0.01 0.01 0.02 0.02 0.01 0.02 0.02 0.02 0.02 0.02 0.03
0.00 0.01 0.01 0.00 0.00 0.00 0.00 0.01 0.01 0.01 0.01 0.01 0.00 0.00 0.00 0.00 0.00 0.00 0.01 0.00 0.00 0.00 0.00 0.00 0.00 0.00 0.00 0.01 0.01 0.01 0.01 0.01 0.01 0.01 0.02 0.02 0.02 0.02 0.03 0.04 0.03 0.02 0.01
0.00 0.00 0.00 0.00 0.00 0.00 0.00 0.00 0.00 0.00 0.01 0.00 0.00 0.00 0.00 0.01 0.01 0.01 0.01 0.01 0.01 0.01 0.01 0.00 0.01 0.00 0.00 0.01 0.01 0.01 0.01 0.01 0.01 0.01 0.01 0.01 0.01 0.02 0.02 0.04 0.05 0.04 0.03
0.00 0.00 0.00 0.00 0.00 0.00 0.00 0.00 0.00 0.00 0.01 0.01 0.01 0.01 0.00 0.01 0.02 0.02 0.01 0.01 0.02 0.02 0.01 0.01 0.01 0.01 0.01 0.01 0.01 0.01 0.01 0.01 0.01 0.01 0.01 0.01 0.01 0.01 0.02 0.03 0.06 0.06 0.05
0.00 0.00 0.00 0.00 0.00 0.00 0.00 0.01 0.01 0.02 0.02 0.02 0.01 0.01 0.01 0.01 0.02 0.03 0.04 0.03 0.02 0.03 0.02 0.01 0.01 0.01 0.01 0.01 0.01 0.01 0.01 0.01 0.01 0.01 0.01 0.01 0.01 0.01 0.01 0.02 0.04 0.04 0.05
0.00 0.01 0.01 0.01 0.01 0.01 0.01 0.01 0.02 0.03 0.03 0.02 0.02 0.02 0.02 0.02 0.02 0.02 0.03 0.04 0.04 0.03 0.03 0.03 0.02 0.01 0.01 0.01 0.00 0.00 0.01 0.01 0.02 0.02 0.02 0.02 0.02 0.02 0.02 0.03 0.04 0.05 0.05
0.01 0.01 0.01 0.01 0.01 0.01 0.02 0.02 0.03 0.03 0.03 0.03 0.02 0.02 0.02 0.02 0.02 0.03 0.03 0.03 0.03 0.03 0.02 0.02 0.01 0.01 0.00 0.00 0.00 0.00 0.00 0.01 0.01 0.02 0.02 0.02 0.02 0.02 0.03 0.04 0.06 0.06 0.05
0.01 0.01 0.00 0.01 0.01 0.02 0.03 0.05 0.05 0.04 0.04 0.03 0.02 0.02 0.02 0.01 0.02 0.03 0.04 0.03 0.02 0.01 0.01 0.01 0.01 0.01 0.01 0.01 0.01 0.01 0.01 0.01 0.02 0.02 0.02 0.02 0.01 0.02 0.02 0.02 0.03 0.03 0.04
0.01 0.01 0.01 0.01 0.01 0.02 0.04 0.06 0.07 0.05 0.04 0.03 0.02 0.02 0.02 0.02 0.02 0.03 0.03 0.03 0.02 0.02 0.02 0.02 0.02 0.02 0.03 0.02 0.02 0.01 0.02 0.02 0.02 0.02 0.02 0.01 0.02 0.02 0.02 0.02 0.02 0.02 0.03
0.01 0.01 0.01 0.01 0.02 0.03 0.03 0.05 0.06 0.06 0.04 0.02 0.02 0.02 0.03 0.03 0.03 0.03 0.02 0.02 0.02 0.02 0.02 0.02 0.03 0.05 0.05 0.03 0.02 0.02 0.02 0.02 0.03 0.02 0.02 0.02 0.02 0.02 0.02 0.03 0.03 0.03 0.02
MSLP
1013.07 1013.45 1013.76 1014.00 1014.19 1014.35 1014.50 1014.65 1014.82 1015.00 1015.20 1015.40 1015.61 1015.82 1016.02 1016.21 1016.41 1016.61 1016.82 1017.03 1017.25 1017.48 1017.72 1017.96 1018.21 1018.45 1018.67 1018.85 1018.99 1019.06 1019.05 1018.97 1018.83 1018.63 1018.41 1018.19 1017.99 1017.83 1017.71 1017.64 1017.59 1017.56 1017.54
1012.66 1013.13 1013.52 1013.83 1014.07 1014.25 1014.42 1014.58 1014.77 1015.00 1015.24 1015.50 1015.77 1016.02 1016.24 1016.44 1016.60 1016.75 1016.89 1017.03 1017.19 1017.38 1017.59 1017.82 1018.06 1018.30 1018.52 1018.71 1018.84 1018.92 1018.93 1018.88 1018.79 1018.66 1018.51 1018.36 1018.22 1018.08 1017.95 1017.82 1017.68 1017.53 1017.37
1011.97 1012.55 1013.04 1013.43 1013.73 1013.96 1014.16 1014.35 1014.57 1014.83 1015.12 1015.44 1015.75 1016.05 1016.30 1016.50 1016.65 1016.76 1016.85 1016.94 1017.06 1017.20 1017.39 1017.60 1017.84 1018.07 1018.29 1018.47 1018.60 1018.69 1018.73 1018.73 1018.70 1018.66 1018.61 1018.55 1018.48 1018.39 1018.27 1018.10 1017.88 1017.62 1017.33
1011.05 1011.74 1012.34 1012.84 1013.22 1013.51 1013.75 1013.99 1014.24 1014.54 1014.88 1015.24 1015.60 1015.93 1016.21 1016.42 1016.57 1016.66 1016.72 1016.78 1016.86 1016.98 1017.14 1017.35 1017.57 1017.79 1018.00 1018.17 1018.30 1018.39 1018.46 1018.50 1018.55 1018.60 1018.65 1018.69 1018.71 1018.68 1018.58 1018.39 1018.11 1017.76 1017.36
1009.98 1010.77 1011.49 1012.09 1012.57 1012.94 1013.25 1013.53 1013.83 1014.16 1014.54 1014.94 1015.35 1015.71 1016.02 1016.24 1016.39 1016.47 1016.52 1016.56 1016.62 1016.72 1016.87 1017.05 1017.26 1017.47 1017.66 1017.82 1017.94 1018.03 1018.12 1018.20 1018.30 1018.43 1018.57 1018.70 1018.80 1018.84 1018.77 1018.58 1018.28 1017.87 1017.40
1008.84 1009.72 1010.54 1011.25 1011.83 1012.29 1012.66 1013.00 1013.35 1013.72 1014.14 1014.58 1015.01 1015.41 1015.74 1015.98 1016.13 1016.20 1016.24 1016.27 1016.32 1016.41 1016.55 1016.72 1016.92 1017.12 1017.29 1017.43 1017.53 1017.62 1017.70 1017.81 1017.95 1018.12 1018.33 1018.53 1018.70 1018.79 1018.76 1018.60 1018.30 1017.88 1017.37
1007.71 1008.64 1009.55 1010.35 1011.01 1011.55 1012.00 1012.40 1012.80 1013.22 1013.67 1014.15 1014.61 1015.03 1015.38 1015.63 1015.78 1015.86 1015.89 1015.91 1015.95 1016.04 1016.17 1016.34 1016.53 1016.72 1016.87 1017.00 1017.08 1017.15 1017.22 1017.32 1017.47 1017.67 1017.91 1018.15 1018.37 1018.50 1018.52 1018.39 1018.12 1017.72 1017.24
1006.65 1007.61 1008.55 1009.40 1010.13 1010.74 1011.25 1011.71 1012.16 1012.63 1013.12 1013.64 1014.13 1014.58 1014.94 1015.20 1015.36 1015.43 1015.46 1015.47 1015.51 1015.59 1015.72 1015.89 1016.08 1016.26 1016.41 1016.52 1016.59 1016.64 1016.68 1016.76 1016.89 1017.08 1017.32 1017.58 1017.81 1017.98 1018.04 1017.96 1017.74 1017.40 1016.97
1005.71 1006.64 1007.56 1008.42 1009.18 1009.82 1010.38 1010.89 1011.40 1011.92 1012.47 1013.02 1013.56 1014.03 1014.41 1014.68 1014.84 1014.92 1014.94 1014.95 1014.98 1015.06 1015.20 1015.38 1015.57 1015.76 1015.91 1016.01 1016.07 1016.09 1016.11 1016.15 1016.25 1016.41 1016.62 1016.86 1017.10 1017.29 1017.38 1017.35 1017.20 1016.93 1016.59
1004.92 1005.75 1006.61 1007.43 1008.16 1008.80 1009.38 1009.93 1010.49 1011.07 1011.68 1012.28 1012.86 1013.37 1013.78 1014.07 1014.24 1014.31 1014.34 1014.35 1014.38 1014.47 1014.61 1014.80 1015.01 1015.21 1015.37 1015.48 1015.53 1015.53 1015.52 1015.53 1015.59 1015.70 1015.87 1016.08 1016.30 1016.49 1016.61 1016.63 1016.55 1016.37 1016.11
1004.30 1005.00 1005.72 1006.43 1007.09 1007.69 1008.27 1008.84 1009.44 1010.07 1010.74 1011.41 1012.05 1012.60 1013.05 1013.36 1013.55 1013.63 1013.66 1013.68 1013.72 1013.81 1013.97 1014.18 1014.41 1014.63 1014.81 1014.93 1014.99 1014.98 1014.96 1014.93 1014.94 1015.00 1015.13 1015.30 1015.49 1015.67 1015.80 1015.87 1015.84 1015.73 1015.56
1003.88 1004.39 1004.94 1005.50 1006.03 1006.56 1007.09 1007.66 1008.29 1008.97 1009.70 1010.44 1011.13 1011.74 1012.23 1012.58 1012.79 1012.90 1012.94 1012.96 1013.02 1013.13 1013.30 1013.53 1013.79 1014.03 1014.24 1014.38 1014.44 1014.44 1014.40 1014.35 1014.33 1014.35 1014.43 1014.55 1014.71 1014.88 1015.01 1015.10 1015.11 1015.06 1014.95
1003.67 1003.98 1004.33 1004.70 1005.08 1005.49 1005.95 1006.50 1007.13 1007.85 1008.63 1009.42 1010.17 1010.83 1011.37 1011.76 1012.00 1012.13 1012.19 1012.24 1012.31 1012.43 1012.62 1012.87 1013.15 1013.42 1013.64 1013.80 1013.88 1013.89 1013.84 1013.78 1013.73 1013.72 1013.76 1013.85 1013.97 1014.11 1014.24 1014.33 1014.37 1014.35 1014.29
1003.70 1003.81 1003.95 1004.12 1004.33 1004.60 1004.98 1005.47 1006.09 1006.81 1007.62 1008.44 1009.24 1009.94 1010.51 1010.93 1011.21 1011.36 1011.45 1011.52 1011.61 1011.75 1011.95 1012.21 1012.50 1012.78 1013.02 1013.19 1013.28 1013.30 1013.26 1013.19 1013.12 1013.09 1013.09 1013.15 1013.24 1013.36 1013.47 1013.55 1013.60 1013.60 1013.55
1003.97 1003.90 1003.85 1003.83 1003.88 1004.02 1004.29 1004.71 1005.28 1005.99 1006.79 1007.62 1008.42 1009.14 1009.73 1010.17 1010.47 1010.65 1010.76 1010.84 1010.94 1011.09 1011.30 1011.56 1011.85 1012.13 1012.36 1012.54 1012.63 1012.65 1012.61 1012.54 1012.46 1012.41 1012.40 1012.43 1012.49 1012.58 1012.67 1012.74 1012.78 1012.78 1012.74
1004.46 1004.25 1004.05 1003.88 1003.78 1003.80 1003.97 1004.31 1004.83 1005.48 1006.24 1007.04 1007.82 1008.51 1009.09 1009.53 1009.83 1010.02 1010.14 1010.23 1010.34 1010.49 1010.70 1010.94 1011.21 1011.47 1011.69 1011.84 1011.92 1011.94 1011.89 1011.82 1011.74 1011.68 1011.65 1011.65 1011.70 1011.76 1011.82 1011.87 1011.90 1011.89 1011.85
1005.11 1004.83 1004.53 1004.26 1004.07 1004.00 1004.08 1004.34 1004.77 1005.35 1006.04 1006.76 1007.48 1008.12 1008.65 1009.05 1009.33 1009.51 1009.63 1009.72 1009.83 1009.97 1010.15 1010.37 1010.61 1010.83 1011.01 1011.13 1011.19 1011.19 1011.13 1011.05 1010.96 1010.90 1010.85 1010.84 1010.86 1010.90 1010.94 1010.97 1010.97 1010.96 1010.91
1005.84 1005.54 1005.22 1004.92 1004.68 1004.56 1004.58 1004.77 1005.12 1005.61 1006.20 1006.82 1007.43 1007.98 1008.44 1008.78 1009.02 1009.17 1009.27 1009.35 1009.44 1009.56 1009.71 1009.89 1010.07 1010.25 1010.38 1010.46 1010.49 1010.46 1010.38 1010.29 1010.20 1010.12 1010.06 1010.04 1010.03 1010.04 1010.05 1010.06 1010.04 1010.01 1009.96
1006.55 1006.31 1006.02 1005.75 1005.52 1005.39 1005.38 1005.52 1005.80 1006.19 1006.66 1007.17 1007.66 1008.09 1008.45 1008.71 1008.88 1008.99 1009.06 1009.11 1009.18 1009.27 1009.38 1009.52 1009.65 1009.77 1009.85 1009.89 1009.87 1009.81 1009.72 1009.61 1009.51 1009.42 1009.35 1009.30 1009.27 1009.24 1009.22 1009.19 1009.14 1009.09 1009.03
1007.17 1007.02 1006.82 1006.62 1006.45 1006.35 1006.34 1006.45 1006.66 1006.97 1007.32 1007.70 1008.07 1008.38 1008.62 1008.80 1008.90 1008.96 1008.98 1009.01 1009.05 1009.10 1009.18 1009.27 1009.36 1009.43 1009.46 1009.45 1009.40 1009.32 1009.21 1009.09 1008.97 1008.86 1008.77 1008.69 1008.62 1008.55 1008.48 1008.39 1008.31 1008.22 1008.14
1007.67 1007.62 1007.54 1007.43 1007.34 1007.29 1007.31 1007.40 1007.57 1007.79 1008.05 1008.31 1008.55 1008.75 1008.89 1008.97 1009.01 1009.01 1009.01 1009.00 1009.01 1009.04 1009.09 1009.15 1009.19 1009.22 1009.22 1009.18 1009.10 1009.00 1008.87 1008.73 1008.60 1008.47 1008.34 1008.22 1008.10 1007.97 1007.83 1007.68 1007.54 1007.40 1007.28
1008.03 1008.09 1008.10 1008.10 1008.09 1008.10 1008.15 1008.24 1008.37 1008.53 1008.70 1008.86 1009.00 1009.09 1009.14 1009.15 1009.13 1009.10 1009.06 1009.03 1009.03 1009.04 1009.06 1009.09 1009.12 1009.12 1009.09 1009.03 1008.94 1008.82 1008.69 1008.54 1008.38 1008.22 1008.05 1007.88 1007.68 1007.48 1007.26 1007.03 1006.80 1006.60 1006.42
1008.28 1008.42 1008.52 1008.59 1008.64 1008.70 1008.77 1008.86 1008.96 1009.07 1009.16 1009.24 1009.30 1009.31 1009.30 1009.25 1009.19 1009.12 1009.07 1009.03 1009.01 1009.02 1009.03 1009.05 1009.06 1009.05 1009.02 1008.95 1008.86 1008.74 1008.59 1008.43 1008.25 1008.05 1007.83 1007.58 1007.31 1007.01 1006.69 1006.37 1006.05 1005.76 1005.51
1008.48 1008.66 1008.80 1008.91 1009.00 1009.07 1009.14 1009.21 1009.28 1009.34 1009.38 1009.39 1009.38 1009.34 1009.27 1009.19 1009.11 1009.03 1008.97 1008.93 1008.91 1008.92 1008.93 1008.95 1008.96 1008.95 1008.92 1008.85 1008.76 1008.64 1008.48 1008.30 1008.09 1007.85 1007.56 1007.24 1006.88 1006.49 1006.07 1005.64 1005.23 1004.85 1004.52
1008.67 1008.85 1008.99 1009.09 1009.17 1009.24 1009.28 1009.31 1009.33 1009.34 1009.32 1009.28 1009.22 1009.14 1009.05 1008.95 1008.86 1008.78 1008.72 1008.69 1008.68 1008.69 1008.71 1008.74 1008.75 1008.75 1008.72 1008.65 1008.56 1008.43 1008.27 1008.06 1007.81 1007.52 1007.17 1006.77 1006.33 1005.84 1005.32 1004.80 1004.30 1003.84 1003.45
1008.88 1009.02 1009.13 1009.19 1009.23 1009.24 1009.23 1009.21 1009.17 1009.11 1009.04 1008.96 1008.86 1008.75 1008.64 1008.53 1008.44 1008.37 1008.32 1008.30 1008.30 1008.32 1008.35 1008.38 1008.40 1008.40 1008.36 1008.30 1008.20 1008.06 1007.87 1007.64 1007.35 1007.00 1006.59 1006.12 1005.60 1005.04 1004.45 1003.86 1003.29 1002.78 1002.34
Thickness
5810 5809 5806 5804 5800 5796 5793 5790 5788 5786 5785 5783 5782 5781 5780 5780 5779 5778 5776 5774 5773 5773 5771 5772 5769 5768 5767 5765 5765 5763 5761 5760 5760 5758 5756 5759 5760 5758 5757 5756 5755 5754 5752
5811 5809 5807 5805 5802 5798 5794 5792 5789 5788 5786 5785 5783 5782 5781 5781 5780 5779 5776 5775 5774 5773 5773 5771 5770 5768 5766 5764 5763 5761 5761 5761 5760 5756 5752 5750 5752 5754 5758 5755 5754 5753 5752
5814 5811 5809 5807 5805 5801 5798 5796 5792 5790 5787 5787 5785 5783 5781 5780 5779 5777 5776 5775 5774 5772 5771 5771 5770 5769 5768 5765 5762 5762 5759 5757 5759 5759 5753 5748 5746 5749 5753 5753 5754 5752 5751
5821 5817 5813 5810 5807 5805 5803 5798 5794 5791 5789 5787 5786 5783 5779 5777 5777 5777 5777 5775 5773 5772 5771 5770 5769 5768 5768 5765 5764 5763 5760 5757 5756 5756 5755 5754 5751 5745 5745 5750 5752 5751 5749
5827 5822 5819 5815 5812 5810 5807 5802 5797 5793 5790 5788 5785 5782 5781 5780 5780 5778 5775 5774 5774 5772 5771 5769 5768 5767 5766 5765 5763 5761 5759 5759 5756 5755 5754 5752 5751 5750 5744 5742 5745 5748 5750
5831 5827 5824 5819 5815 5813 5810 5805 5798 5794 5792 5789 5787 5783 5780 5779 5777 5775 5774 5774 5775 5773 5771 5770 5768 5766 5766 5763 5761 5759 5758 5757 5755 5754 5754 5752 5749 5747 5745 5742 5742 5743 5746
5833 5828 5823 5819 5816 5813 5810 5806 5800 5795 5793 5790 5787 5785 5782 5779 5776 5775 5774 5773 5774 5772 5770 5770 5767 5766 5764 5762 5761 5759 5758 5756 5753 5752 5753 5754 5752 5751 5747 5743 5741 5741 5744
5836 5831 5827 5822 5818 5815 5811 5807 5801 5796 5793 5791 5788 5786 5783 5782 5780 5777 5776 5774 5774 5773 5770 5768 5766 5765 5763 5762 5760 5759 5757 5755 5753 5753 5751 5750 5752 5751 5749 5744 5740 5737 5739
5837 5834 5831 5827 5821 5817 5813 5809 5803 5798 5795 5792 5789 5786 5784 5782 5780 5777 5775 5775 5772 5772 5770 5768 5765 5764 5762 5760 5758 5757 5755 5753 5752 5751 5750 5749 5750 5749 5748 5746 5743 5736 5732
5838 5835 5832 5828 5824 5820 5816 5812 5806 5801 5797 5794 5791 5788 5784 5782 5779 5777 5774 5772 5770 5769 5767 5766 5764 5762 5760 5758 5756 5755 5753 5751 5749 5747 5746 5745 5748 5747 5746 5744 5742 5740 5734
5838 5835 5832 5829 5825 5821 5817 5811 5806 5801 5797 5794 5791 5788 5786 5783 5779 5776 5774 5771 5769 5767 5765 5763 5761 5759 5758 5756 5754 5753 5750 5748 5746 5745 5744 5742 5742 5743 5743 5741 5740 5738 5735
5838 5836 5831 5827 5823 5819 5816 5811 5807 5803 5799 5795 5791 5788 5785 5782 5779 5776 5773 5770 5768 5766 5763 5761 5759 5757 5755 5753 5751 5749 5748 5746 5743 5742 5741 5739 5740 5737 5738 5737 5736 5734 5731
5833 5831 5827 5823 5819 5817 5813 5810 5806 5803 5800 5796 5791 5787 5783 5780 5777 5775 5772 5769 5766 5764 5762 5759 5756 5754 5752 5750 5748 5746 5744 5743 5741 5739 5737 5736 5735 5733 5734 5732 5731 5730 5729
5825 5824 5821 5818 5816 5814 5811 5807 5804 5803 5799 5795 5791 5786 5782 5778 5776 5772 5769 5766 5764 5761 5758 5756 5753 5751 5749 5747 5745 5742 5741 5739 5737 5736 5735 5734 5732 5730 5729 5728 5726 5725 5723
5817 5817 5815 5814 5812 5809 5806 5804 5802 5800 5797 5792 5787 5783 5780 5777 5773 5770 5767 5764 5761 5759 5756 5753 5750 5748 5746 5744 5740 5738 5738 5735 5733 5733 5732 5731 5727 5725 5724 5725 5723 5720 5718
5810 5811 5810 5808 5806 5805 5803 5801 5798 5796 5794 5789 5785 5782 5778 5774 5770 5767 5764 5761 5758 5755 5753 5750 5747 5745 5744 5737 5733 5731 5733 5731 5729 5728 5728 5727 5724 5721 5717 5716 5713 5712 5712
5802 5802 5803 5803 5802 5802 5800 5796 5795 5792 5789 5786 5783 5779 5775 5771 5768 5765 5761 5758 5755 5752 5749 5747 5744 5741 5737 5731 5727 5724 5726 5726 5725 5724 5723 5724 5724 5719 5717 5713 5708 5707 5704
5795 5796 5797 5797 5798 5798 5796 5794 5792 5788 5784 5781 5778 5776 5772 5768 5765 5761 5757 5754 5752 5749 5746 5743 5740 5736 5732 5726 5722 5720 5721 5722 5720 5719 5718 5716 5716 5714 5711 5710 5709 5707 5706
5789 5790 5792 5793 5792 5791 5790 5788 5785 5782 5779 5777 5774 5772 5769 5765 5761 5757 5753 5750 5747 5744 5741 5739 5735 5732 5727 5721 5718 5714 5717 5717 5716 5715 5713 5711 5710 5706 5702 5702 5702 5702 5702
5780 5782 5784 5785 5783 5783 5783 5779 5777 5775 5772 5771 5769 5767 5764 5759 5755 5752 5749 5746 5742 5739 5737 5734 5731 5728 5725 5718 5713 5709 5715 5713 5713 5711 5709 5704 5703 5699 5695 5696 5696 5695 5695
5769 5772 5773 5774 5774 5773 5772 5769 5769 5767 5766 5765 5762 5760 5757 5753 5750 5746 5743 5739 5736 5733 5730 5728 5726 5723 5719 5714 5709 5705 5708 5710 5708 5708 5707 5706 5697 5693 5690 5689 5691 5690 5688
5758 5761 5761 5762 5764 5764 5761 5759 5759 5760 5759 5757 5754 5751 5748 5747 5745 5738 5734 5731 5728 5724 5722 5721 5719 5718 5715 5710 5705 5701 5699 5699 5701 5701 5702 5700 5691 5687 5684 5684 5684 5682 5680
5747 5750 5750 5750 5752 5753 5752 5749 5750 5751 5749 5746 5744 5742 5740 5737 5735 5730 5726 5723 5721 5720 5719 5717 5715 5713 5713 5708 5701 5696 5693 5691 5691 5695 5691 5687 5683 5680 5680 5679 5677 5676 5678
5736 5739 5739 5740 5740 5742 5742 5741 5741 5741 5738 5735 5734 5733 5730 5728 5726 5723 5722 5718 5716 5715 5712 5710 5709 5708 5706 5704 5699 5696 5691 5686 5685 5686 5684 5679 5677 5676 5676 5675 5674 5674 5676
5725 5727 5727 5728 5729 5731 5731 5731 5730 5729 5726 5725 5725 5724 5723 5721 5718 5716 5715 5714 5711 5709 5705 5705 5703 5701 5698 5694 5688 5687 5687 5685 5682 5678 5679 5679 5678 5677 5676 5675 5675 5673 5672
5713 5714 5716 5717 5718 5719 5719 5720 5719 5718 5715 5715 5716 5716 5715 5713 5711 5709 5707 5704 5701 5697 5693 5691 5690 5692 5687 5682 5679 5676 5673 5672 5670 5669 5674 5675 5675 5674 5673 5672 5671 5670 5669